This is the latest recevied weather packets stored in our database for station/object N1TKS. If no packets are shown the sender has not sent any weather packets the latest 10 day(s).
| Time | Temp. | Humidity | Pressure | Rain* | Wind** | Luminosity | Snow |
|---|---|---|---|---|---|---|---|
| 1778078266 | 18.33° C | 78% | 1009.9 hPa | 0 mm | - | - | - |
| 1778078215 | 18.33° C | 78% | 1009.9 hPa | 0 mm | - | - | - |
| 1778077976 | 18.33° C | 78% | 1009.8 hPa | 0 mm | - | - | - |
| 1778077914 | 18.33° C | 78% | 1009.8 hPa | 0 mm | - | - | - |
| 1778077617 | 18.33° C | 78% | 1009.7 hPa | 0 mm | - | - | - |
| 1778077314 | 17.78° C | 78% | 1009.9 hPa | 0 mm | - | - | - |
| 1778077014 | 17.78° C | 78% | 1010 hPa | 0 mm | - | - | - |
| 1778077003 | 17.78° C | 78% | 1010 hPa | 0 mm | - | - | - |
| 1778076715 | 17.78° C | 78% | 1010 hPa | 0 mm | - | - | - |
| 1778076621 | 17.78° C | 79% | 1010.2 hPa | 0 mm | - | - | - |
| 1778076414 | 17.78° C | 78% | 1010 hPa | 0 mm | - | - | - |
| 1778076114 | 17.78° C | 78% | 1010.1 hPa | 0 mm | - | - | - |
| 1778075857 | 18.33° C | 78% | 1010.1 hPa | 0 mm | - | - | - |
| 1778075817 | 18.33° C | 78% | 1010.1 hPa | 0 mm | - | - | - |
| 1778075589 | 18.33° C | 79% | 1009.9 hPa | 0 mm | - | - | - |
| 1778075514 | 18.33° C | 79% | 1009.9 hPa | 0 mm | - | - | - |
| 1778074914 | 17.78° C | 79% | 1010.2 hPa | 0 mm | - | - | - |
| 1778074696 | 16.67° C | 81% | 1009.9 hPa | 0 mm | - | - | - |
| 1778074613 | 17.78° C | 79% | 1010.2 hPa | 0 mm | - | - | - |
| 1778074057 | 17.22° C | 79% | 1010.2 hPa | 0 mm | - | - | - |
| 1778074015 | 17.22° C | 79% | 1010.2 hPa | 0 mm | - | - | - |
| 1778073714 | 17.22° C | 80% | 1010.1 hPa | 0 mm | - | - | - |
| 1778072814 | 16.67° C | 81% | 1009.9 hPa | 0 mm | - | - | - |
| 1778072791 | 16.67° C | 82% | 1009.9 hPa | 0 mm | - | - | - |
| 1778072513 | 16.67° C | 82% | 1009.8 hPa | 0 mm | - | - | - |
* Rain latest hour (hover to see other rain measurements)
** Current wind speed in m/s (hover to see current wind gust speed)